Gene Autry, OK

11:28 AM CDT on August 31, 2016 (GMT -0500)
Ardmore Municipal

Weather History for KADM - November, 2013

Change the Weather History Date:

Tuesday, November 5, 2013

  Actual Average Record
Temperature  
Mean Temperature 63 °F -  
Max Temperature 68 °F 63 °F 86 °F (2005)
Min Temperature 58 °F 46 °F 32 °F (2010)
Degree Days  
Heating Degree Days 2    
Growing Degree Days 13 (Base 50)    
Moisture  
Dew Point 62 °F    
Average Humidity 98    
Maximum Humidity 100    
Minimum Humidity 94    
Precipitation  
Precipitation 0.29 in - - ()
Sea Level Pressure  
Sea Level Pressure 30.00 in    
Wind  
Wind Speed 8 mph (SE)    
Max Wind Speed 13 mph    
Max Gust Speed 18 mph    
Visibility 7 miles    
Events Rain    
Averages and records for this station are not official NWS values.
T = Trace of Precipitation, MM = Missing Value Source: NWS Daily Summary

Daily Weather History Graph

Daily Weather History Graph

Search for Another Location

Airport or City:

Trip Planner

Search our weather history database for the weather conditions in past years. The results will help you decide how hot, cold, wet, or windy it might be!

Date:

Astronomy

Nov. 05, 2013 Rise Set
Actual Time 6:51 AM CST 5:30 PM CST
Civil Twilight 6:25 AM CST 5:57 PM CST
Nautical Twilight 5:55 AM CST 6:26 PM CST
Astronomical Twilight 5:26 AM CST 6:56 PM CST
Moon 9:04 AM CST (11/5) 7:37 PM CST (11/5)
Length of Visible Light 11h 31m
Length of Day
10h 39m
Waxing Crescent, 7% of the Moon is Illuminated
Nov 5
Waxing Crescent
Nov 9
First Quarter
Nov 17
Full
Nov 25
Last Quarter
Dec 2
New

Hourly Weather History & Observations

Time (CST) Temp. Dew Point Humidity Pressure Visibility Wind Dir Wind Speed Gust Speed Precip Events Conditions
12:15 AM 59.0 °F 59.0 °F 100% 30.07 in 5.0 mi ESE 8.1 mph - 0.04 in Rain Rain
12:35 AM 59.0 °F 59.0 °F 100% 30.07 in 4.0 mi SE 9.2 mph - 0.09 in Rain Rain
12:55 AM 59.0 °F 59.0 °F 100% 30.06 in 5.0 mi SE 9.2 mph 18.4 mph 0.13 in Rain Rain
1:15 AM 59.0 °F 59.0 °F 100% 30.06 in 5.0 mi SE 6.9 mph - 0.03 in Rain Rain
1:35 AM 59.0 °F 59.0 °F 100% 30.07 in 5.0 mi SE 6.9 mph - 0.05 in Rain Rain
1:55 AM 58.6 °F 58.6 °F 100% 30.06 in 5.0 mi SE 6.9 mph - 0.09 in Rain Rain
2:15 AM 58.8 °F 58.8 °F 100% 30.05 in 5.0 mi SE 9.2 mph - 0.02 in Rain Light Rain
2:35 AM 59.0 °F 59.0 °F 100% 30.04 in 7.0 mi ESE 9.2 mph - 0.04 in Rain Light Rain
2:55 AM 59.0 °F 59.0 °F 100% 30.03 in 7.0 mi ESE 5.8 mph - 0.06 in Rain Light Rain
3:15 AM 59.0 °F 59.0 °F 100% 30.03 in 10.0 mi SE 8.1 mph - N/A   Overcast
3:35 AM 59.2 °F 59.2 °F 100% 30.02 in 10.0 mi SE 8.1 mph - N/A   Overcast
3:55 AM 59.4 °F 59.2 °F 99% 30.03 in 10.0 mi SE 5.8 mph - N/A   Overcast
4:15 AM 59.9 °F 59.5 °F 99% 30.02 in 10.0 mi SE 6.9 mph - N/A   Overcast
4:35 AM 59.9 °F 59.9 °F 100% 30.02 in 10.0 mi SE 5.8 mph - N/A   Overcast
4:55 AM 60.3 °F 60.1 °F 99% 30.02 in 10.0 mi SE 6.9 mph - N/A   Overcast
5:15 AM 60.4 °F 60.1 °F 99% 30.02 in 10.0 mi SE 9.2 mph - N/A   Overcast
5:35 AM 60.8 °F 60.3 °F 98% 30.02 in 10.0 mi SE 8.1 mph - N/A   Overcast
6:55 AM 60.8 °F 59.0 °F 94% 30.02 in 5.0 mi ESE 9.2 mph - N/A   Overcast
7:55 AM 60.8 °F 60.8 °F 100% 30.03 in 5.0 mi SE 9.2 mph - N/A   Overcast
8:55 AM 60.8 °F 60.8 °F 100% 30.04 in 4.0 mi SE 9.2 mph - N/A   Overcast
9:55 AM 60.8 °F 60.8 °F 100% 30.03 in 3.0 mi East 6.9 mph - N/A Rain Light Rain
10:55 AM 62.6 °F 62.6 °F 100% 30.02 in 10.5 mi SE 9.2 mph - N/A   Overcast
11:55 AM 62.6 °F 62.6 °F 100% 30.00 in 5.0 mi SSE 10.4 mph - N/A   Overcast
12:55 PM 64.4 °F 64.4 °F 100% 29.97 in 3.0 mi SSE 9.2 mph - N/A   Overcast
1:55 PM 68.0 °F 66.2 °F 94% 29.94 in 10.0 mi SE 10.4 mph - N/A   Overcast
2:55 PM 66.2 °F 64.4 °F 94% 29.94 in 10.0 mi SSE 6.9 mph - N/A Rain Light Rain
3:55 PM 66.2 °F 64.4 °F 94% 29.94 in 7.0 mi SSE 12.7 mph 17.3 mph N/A Rain Light Rain
4:55 PM 66.2 °F 66.2 °F 100% 29.94 in 5.0 mi North - - N/A Rain Rain
5:55 PM 66.2 °F 64.4 °F 94% 29.95 in 5.0 mi North - - N/A   Mist
6:55 PM 66.2 °F 64.4 °F 94% 29.95 in 5.0 mi North - - N/A   Mist
7:55 PM 66.2 °F 64.4 °F 94% 29.95 in 5.0 mi North - - N/A Rain Rain
8:55 PM 66.2 °F 66.2 °F 100% 29.94 in 3.0 mi North - - N/A Rain Heavy Rain
9:55 PM 66.2 °F 66.2 °F 100% 29.95 in 3.0 mi North - - N/A Rain Heavy Rain
10:35 PM 66.7 °F 66.2 °F 98% 29.95 in 10.0 mi South 6.9 mph - 0.01 in   Overcast
10:55 PM 67.1 °F 66.6 °F 98% 29.95 in 10.0 mi South 8.1 mph - 0.01 in   Overcast
11:15 PM 67.6 °F 67.1 °F 98% 29.95 in 10.0 mi South 8.1 mph - N/A   Overcast
11:35 PM 68.0 °F 67.1 °F 97% 29.94 in 10.0 mi South 10.4 mph 17.3 mph N/A   Overcast
11:55 PM 68.0 °F 67.1 °F 97% 29.94 in 10.0 mi SSW 10.4 mph - N/A   Overcast